Weather History for McAlester, OK

Change the Weather History Date:

Tuesday, April 23, 2013

  Actual Average Record
Temperature  
Mean Temperature 54 °F -  
Max Temperature 68 °F 74 °F 90 °F (1964)
Min Temperature 39 °F 51 °F 37 °F (1998)
Degree Days  
Heating Degree Days 12    
Growing Degree Days 4 (Base 50)    
Moisture  
Dew Point 44 °F    
Average Humidity 82    
Maximum Humidity 94    
Minimum Humidity 49    
Precipitation  
Precipitation 0.08 in - - ()
Sea Level Pressure  
Sea Level Pressure 30.01 in    
Wind  
Wind Speed 10 mph (NNW)    
Max Wind Speed 20 mph    
Max Gust Speed 26 mph    
Visibility 6 miles    
Events Rain    
Averages and records for this station are not official NWS values.
T = Trace of Precipitation, MM = Missing Value Source: NWS Daily Summary

Daily Weather History Graph

Daily Weather History Graph

Search for Another Location

Airport:

Trip Planner

Search our weather history database for the weather conditions in past years. The results will help you decide how hot, cold, wet, or windy it might be!

Date:

Astronomy

Apr. 23, 2013 Rise Set
Actual Time 6:41 AM CDT 8:02 PM CDT
Civil Twilight 6:14 AM CDT 8:28 PM CDT
Nautical Twilight 5:42 AM CDT 9:00 PM CDT
Astronomical Twilight 5:09 AM CDT 9:33 PM CDT
Moon 6:02 PM CDT (4/23) 5:04 AM CDT (4/23)
Length of Visible Light 14h 14m
Length of Day
13h 21m
Waxing Gibbous, 94% of the Moon is Illuminated
Apr 23
Waxing Gibbous
Apr 25
Full
May 2
Last Quarter
May 9
New
May 17
First Quarter

Hourly Weather History & Observations

Time (CDT) Temp. Windchill Dew Point Humidity Pressure Visibility Wind Dir Wind Speed Gust Speed Precip Events Conditions
12:53 AM 66.9 °F - 48.9 °F 52% 29.89 in 10.0 mi ESE 4.6 mph - N/A   Overcast
1:53 AM 66.9 °F - 48.0 °F 51% 29.88 in 10.0 mi Variable 4.6 mph - N/A   Overcast
2:53 AM 68.0 °F - 48.0 °F 49% 29.85 in 10.0 mi SE 5.8 mph - N/A   Overcast
3:53 AM 66.9 °F - 48.9 °F 52% 29.85 in 10.0 mi South 8.1 mph - N/A   Overcast
4:53 AM 64.4 °F - 50.0 °F 59% 29.85 in 10.0 mi SSE 8.1 mph 18.4 mph N/A   Mostly Cloudy
5:53 AM 66.0 °F - 51.1 °F 59% 29.82 in 10.0 mi South 12.7 mph 20.7 mph N/A   Overcast
6:53 AM 64.9 °F - 51.1 °F 61% 29.84 in 10.0 mi South 10.4 mph 18.4 mph N/A   Overcast
7:53 AM 64.9 °F - 52.0 °F 63% 29.86 in 10.0 mi South 8.1 mph 18.4 mph N/A   Overcast
8:01 AM 64.4 °F - 51.8 °F 64% 29.89 in 10.0 mi South 9.2 mph 16.1 mph N/A   Overcast
8:53 AM 64.0 °F - 53.1 °F 67% 29.90 in 10.0 mi SW 9.2 mph - N/A   Overcast
9:14 AM 57.2 °F - 55.4 °F 94% 29.94 in 2.0 mi WNW 10.4 mph - 0.01 in Rain Light Rain
9:23 AM 57.2 °F - 53.6 °F 88% 29.94 in 3.0 mi NW 10.4 mph - 0.01 in Rain Light Rain
9:53 AM 52.0 °F - 48.9 °F 89% 29.95 in 3.0 mi NW 10.4 mph - 0.02 in Rain Light Rain
10:04 AM 51.8 °F - 48.2 °F 88% 29.97 in 2.5 mi NNW 8.1 mph - 0.00 in Rain Light Rain
10:28 AM 50.0 °F - 48.2 °F 94% 29.97 in 3.0 mi NNW 10.4 mph - 0.01 in Rain Light Rain
10:36 AM 50.0 °F - 48.2 °F 94% 29.98 in 2.5 mi NNW 6.9 mph - 0.01 in Rain Light Rain
10:46 AM 50.0 °F - 48.2 °F 94% 29.98 in 3.0 mi NNW 8.1 mph - 0.01 in Rain Light Rain
10:53 AM 50.0 °F - 48.0 °F 93% 29.97 in 3.0 mi NW 10.4 mph - 0.01 in Rain Light Rain
11:01 AM 50.0 °F - 48.2 °F 94% 29.99 in 2.5 mi NW 10.4 mph - 0.00 in Rain Light Rain
11:27 AM 50.0 °F - 46.4 °F 87% 30.00 in 3.0 mi NW 11.5 mph - 0.01 in Rain Light Rain
11:41 AM 48.2 °F - 46.4 °F 93% 30.00 in 2.5 mi NNW 13.8 mph - 0.01 in Rain Light Rain
11:53 AM 48.9 °F - 46.0 °F 90% 29.99 in 2.5 mi NNW 15.0 mph 19.6 mph 0.01 in Rain Light Rain
12:23 PM 46.4 °F 40.7 °F 44.6 °F 93% 30.02 in 2.5 mi NNW 12.7 mph - 0.00 in Rain Light Rain
12:53 PM 46.0 °F 41.4 °F 43.0 °F 89% 30.02 in 1.5 mi NW 9.2 mph - 0.00 in Rain Light Rain
1:01 PM 46.4 °F 41.9 °F 42.8 °F 87% 30.03 in 1.5 mi NW 9.2 mph - 0.00 in Rain Light Rain
1:25 PM 44.6 °F 39.2 °F 42.8 °F 93% 30.03 in 2.5 mi NNW 10.4 mph - 0.00 in Rain Light Rain
1:40 PM 44.6 °F 38.4 °F 42.8 °F 93% 30.03 in 2.5 mi NNW 12.7 mph - 0.00 in Rain Light Rain
1:42 PM 44.6 °F 38.8 °F 42.8 °F 93% 30.03 in 3.0 mi NNW 11.5 mph - 0.00 in Rain Light Rain
1:53 PM 45.0 °F 39.3 °F 42.1 °F 90% 30.02 in 2.5 mi NNW 11.5 mph - 0.00 in Rain Light Rain
2:05 PM 44.6 °F 37.8 °F 41.0 °F 87% 30.03 in 1.5 mi NW 15.0 mph 19.6 mph 0.01 in Rain Light Rain
2:24 PM 44.6 °F 38.4 °F 41.0 °F 87% 30.04 in 2.0 mi NNW 12.7 mph 21.9 mph 0.01 in Rain Light Rain
2:53 PM 44.1 °F 38.6 °F 41.0 °F 89% 30.03 in 3.0 mi NNW 10.4 mph - 0.01 in Rain Light Rain
3:10 PM 44.6 °F 38.1 °F 41.0 °F 87% 30.04 in 3.0 mi NNW 13.8 mph - 0.00 in Rain Light Rain
3:23 PM 42.8 °F 36.6 °F 39.2 °F 87% 30.04 in 3.0 mi North 11.5 mph - 0.01 in Rain Light Rain
3:30 PM 44.6 °F 39.7 °F 39.2 °F 81% 30.04 in 4.0 mi NNW 9.2 mph - 0.01 in Rain Light Rain
3:53 PM 43.0 °F 36.4 °F 39.9 °F 89% 30.04 in 4.0 mi NNW 12.7 mph - 0.01 in Rain Light Rain
4:53 PM 43.0 °F 36.8 °F 39.0 °F 86% 30.05 in 10.0 mi North 11.5 mph 18.4 mph 0.00 in   Overcast
5:06 PM 42.8 °F 36.6 °F 39.2 °F 87% 30.05 in 10.0 mi North 11.5 mph - N/A   Overcast
5:18 PM 42.8 °F 37.0 °F 39.2 °F 87% 30.05 in 7.0 mi North 10.4 mph - N/A   Overcast
5:32 PM 42.8 °F 35.4 °F 37.4 °F 81% 30.05 in 10.0 mi North 15.0 mph - N/A   Overcast
5:53 PM 42.1 °F 36.1 °F 37.9 °F 85% 30.06 in 10.0 mi North 10.4 mph - N/A   Overcast
6:53 PM 42.1 °F 36.1 °F 39.0 °F 89% 30.07 in 10.0 mi NNW 10.4 mph - N/A   Overcast
7:53 PM 41.0 °F 34.3 °F 37.0 °F 86% 30.09 in 10.0 mi NNW 11.5 mph 20.7 mph N/A   Overcast
8:21 PM 41.0 °F 32.8 °F 35.6 °F 81% 30.11 in 10.0 mi NNW 16.1 mph 24.2 mph N/A   Overcast
8:53 PM 39.9 °F 31.8 °F 36.0 °F 86% 30.12 in 10.0 mi North 15.0 mph 23.0 mph N/A   Overcast
9:03 PM 39.2 °F 29.6 °F 35.6 °F 87% 30.13 in 10.0 mi North 19.6 mph 24.2 mph N/A   Overcast
9:53 PM 39.9 °F 31.4 °F 34.0 °F 79% 30.15 in 10.0 mi North 16.1 mph - 0.00 in Rain Light Rain
10:35 PM 39.2 °F 31.6 °F 35.6 °F 87% 30.18 in 7.0 mi North 12.7 mph - 0.02 in Rain Rain
10:53 PM 39.0 °F 31.4 °F 35.1 °F 86% 30.19 in 10.0 mi NNW 12.7 mph 21.9 mph 0.02 in   Overcast
11:53 PM 39.0 °F 29.6 °F 34.0 °F 82% 30.20 in 10.0 mi NNW 18.4 mph 26.5 mph 0.00 in   Overcast